Location: Unspecified
(58.7730°N, 5.8460°E)
Time: 04:37:54
(UTC+02:00)

Cosmos 2058 - Visible Passes

Search period start: 26 July 2016 00:00
Search period end: 05 August 2016 00:00
Orbit: 565 x 585 km, 82.5° (Epoch: 25 July)

Date Brightness Start Highest point End Pass type
(mag) Time Alt. Az. Time Alt. Az. Time Alt. Az.
26 Jul 6.5 03:37:51 10° NNE 03:38:59 11° NE 03:40:07 10° ENE visible
27 Jul 6.2 03:40:53 10° NNE 03:42:49 13° NE 03:44:45 10° ENE visible
28 Jul 6.1 03:44:10 10° NNE 03:46:39 15° NE 03:49:06 10° E visible
29 Jul 5.9 03:47:33 10° NNE 03:50:27 17° NE 03:53:19 10° E visible
30 Jul 5.8 03:51:00 10° N 03:54:14 20° ENE 03:57:26 10° ESE visible
31 Jul 5.5 03:54:30 10° N 03:58:00 24° ENE 04:01:28 10° ESE visible
01 Aug 5.1 03:58:01 10° N 04:01:45 28° ENE 04:05:26 10° ESE visible
02 Aug 4.8 04:01:34 10° N 04:05:29 34° ENE 04:09:21 10° SE visible
03 Aug 6.5 02:30:52 10° NE 02:30:59 10° NE 02:31:08 10° NE visible
03 Aug 4.4 04:05:08 10° N 04:09:11 41° ENE 04:13:12 10° SE visible
04 Aug 6.0 02:33:14 10° NNE 02:34:51 12° NE 02:36:25 10° ENE visible
04 Aug 3.9 04:08:43 10° N 04:12:52 50° ENE 04:17:00 10° SSE visible
